Regional Weather Roundup
Issued by NWS

Home | Current Version | Previous Version | Graphics & Text | Print | Product List | Glossary On
Versions: 1 2 3 4 5 6 7 8 9 10 11 12 13 14 15 16 17 18 19 20 21 22 23 24 25 26 27 28 29 30 31 32 33 34 35 36 37 38 39 40 41 42 43 44 45 46 47 48 49 50
000
ASUS43 KMKX 232121
RWRWI

WISCONSIN REGIONAL WEATHER ROUNDUP
NATIONAL WEATHER SERVICE MILWAUKEE/SULLIVAN WI
400 PM CDT THU MAR 23 2017

NOTE: "FAIR" INDICATES FEW OR NO CLOUDS BELOW 12,000 FEET WITH NO
SIGNIFICANT WEATHER AND/OR OBSTRUCTIONS TO VISIBILITY.

WIZ001-002-006>008-014>016-023>028-232200-
NORTHWEST WISCONSIN

CITY           SKY/WX    TMP DP  RH WIND       PRES   REMARKS
SUPERIOR ARPT  DRIZZLE   37  27  69 S7        29.96R WCI  31
ASHLAND        CLOUDY    38  25  59 S7        29.94  WCI  33
HAYWARD        CLOUDY    38  21  50 S9        29.96F WCI  31
SIREN          DRIZZLE   38  24  57 S9        29.98R WCI  31
CUMBERLAND     CLOUDY    36  23  60 S10       29.98R WCI  28
RICE LAKE      CLOUDY    39  23  52 SE13      29.97R WCI  31
CHETEK         CLOUDY    39  22  52 SE13G23   29.96R WCI  31
LADYSMITH      CLOUDY    38  24  55 SE10G22   29.97F WCI  31
EAU CLAIRE     CLOUDY    42  22  44 SE14      29.95F
MENOMONIE      CLOUDY    43  24  47 SE10      29.96R
NEW RICHMOND   CLOUDY    39  24  53 S8        29.99R WCI  34
OSCEOLA        LGT RAIN  39  28  65 SE8       30.01R WCI  33
$$

WIZ003>005-009-010-017-018-232200-
NORTH CENTRAL WISCONSIN

CITY           SKY/WX    TMP DP  RH WIND       PRES   REMARKS
MANITOWISH WTR CLOUDY    36  21  55 S15G21    29.99F WCI  26
ARBOR VITAE    CLOUDY    38  22  52 S16G22    30.00F WCI  29
WOODRUFF       CLOUDY    38  22  52 S16G22    30.00F WCI  29
RHINELANDER    CLOUDY    38  20  48 S13G21    30.03F WCI  30
EAGLE RIVER    CLOUDY    37  17  45 S8G22     30.02F WCI  30
LAND O LAKES   CLOUDY    37  20  50 S9        30.03F WCI  30
PHILLIPS       CLOUDY    37  23  58 SE12      29.97F WCI  29
TOMAHAWK       CLOUDY    37  22  54 S6        30.02F WCI  33
MEDFORD        CLOUDY    36  21  54 SE16G23   29.98F WCI  26
MERRILL        CLOUDY    40  20  44 S7G17     30.04F
$$

WIZ029-030-035-036-043>047-232200-
CENTRAL WISCONSIN

CITY           SKY/WX    TMP DP  RH WIND       PRES   REMARKS
WAUSAU         CLOUDY    40  19  43 S14       30.04F WCI  32
MOSINEE        CLOUDY    39  19  45 S12       30.07F WCI  32
MARSHFIELD     CLOUDY    39  21  48 SE17G25   30.01F WCI  30
STEVENS POINT  CLOUDY    38  19  47 SE13      30.08F WCI  30
WAUPACA        CLOUDY    42  22  44 SE7       30.12F
WAUTOMA        CLOUDY    43  22  43 S13       30.11F
WISC RAPIDS    CLOUDY    41  22  46 S9        30.08F
CAMP DOUGLAS   CLOUDY    43  22  42 SE13      30.04F
$$

WIZ011>013-019>022-031-037>040-048>050-232200-
NORTHEAST WISCONSIN

CITY           SKY/WX    TMP DP  RH WIND       PRES   REMARKS
ANTIGO         CLOUDY    35  24  63 S12       30.07F WCI  27
SHAWANO        CLOUDY    42  21  44 S6        30.14F
OCONTO         CLOUDY    36  26  66 S10G21    30.16F WCI  28
STURGEON BAY   CLOUDY    34  25  69 S16G25    30.17F WCI  24
GREEN BAY      CLOUDY    38  27  64 SE13      30.15F WCI  30
MANITOWOC      CLOUDY    36  26  67 S18G25    30.19F WCI  26
APPLETON       CLOUDY    37  23  56 SE14      30.12F WCI  29
CLINTONVILLE   CLOUDY    39  23  52 S10       30.12F WCI  32
OSHKOSH        CLOUDY    40  27  59 SE13      30.13F WCI  32
$$

WIZ032>034-041-042-053>061-232200-
SOUTHWEST WISCONSIN

CITY           SKY/WX    TMP DP  RH WIND       PRES   REMARKS
LA CROSSE      CLOUDY    44  28  53 SE22G32   29.90F
SPARTA         CLOUDY    43  25  48 SE15G26   29.97F
VIROQUA        CLOUDY    40  26  56 SE21      29.97F WCI  30
BOSCOBEL       CLOUDY    45  26  47 S7        30.08F
PRAIRIE DU CHI CLOUDY    42  28  58 SE13      30.04F
PLATTEVILLE    CLOUDY    42  28  58 SE12      30.07F
$$

WIZ056-057-062-063-064-067-068-232200-
SOUTH CENTRAL WISCONSIN

CITY           SKY/WX    TMP DP  RH WIND       PRES   REMARKS
REEDSBURG      CLOUDY    43  23  44 S7        30.09F
BARABOO/DELLS  CLOUDY    43  21  42 S13       30.10S
LONE ROCK      CLOUDY    45  22  40 SE16G22   30.08F
MINERAL POINT  CLOUDY    43  27  52 SE13      30.06F
MADISON        CLOUDY    45  19  35 S21       30.11F
MIDDLETON      CLOUDY    45  21  38 S9G18     30.11S
WATERTOWN      CLOUDY    46  20  36 S14G20    30.12F
MONROE         CLOUDY    41  23  48 SE16G23   30.10F
JANESVILLE     CLOUDY    46  19  34 SE17      30.13F
$$

WIZ051-052-058>065-066-070>072-232200-
SOUTHEAST WISCONSIN

CITY           SKY/WX    TMP DP  RH WIND       PRES   REMARKS
MILWAUKEE      CLOUDY    41  23  48 S16       30.17F
WAUKESHA       CLOUDY    41  25  52 SE13G20   30.16F
MILWAUKEE/TIMM CLOUDY    41  19  42 S14       30.18F
RACINE         CLOUDY    39  25  57 SE13G26   30.19F WCI  31
KENOSHA        CLOUDY    40  23  50 SE15      30.17F WCI  32
FOND DU LAC    CLOUDY    42  26  53 SE10      30.13F
SHEBOYGAN      CLOUDY    37  26  64 S18G26    30.18F WCI  27
WEST BEND      CLOUDY    37  27  65 SE8       30.16S WCI  31
JUNEAU         CLOUDY    45  22  40 SE13      30.13F
$$

LSZ147-162-232200-
LAKE SUPERIOR

STATION/POSITION TIME  TEMP    WIND        PRES    WAVE
                       AIR SEA DIR/SP/G            HT/PER
                 (UTC) (F)     (DEG/KT/KT) (MB)    (FT/S)
DEVILS ISLAND    2100   35     170/  6/  8 1015.4F
PORT WING        2040   37     120/  2/  5 1013.9F
SAXON HARBOR     2030   39     180/  4/ 10 1015.2F
$$

LMZ867-665-643>646-232200-
LAKE MICHIGAN

STATION/POSITION TIME  TEMP    WIND        PRES    WAVE
                       AIR SEA DIR/SP/G            HT/PER
                 (UTC) (F)     (DEG/KT/KT) (MB)    (FT/S)
CHAMBERS ISLAND  2040   35     160/  6/ 14 1021.7F
NORTHPORT PIER   2040   34     150/ 12/ 20 1022.4F
SISTER BAY       2035   34     190/ 20/ 28   N/A
KEWAUNEE LAKESHO 2100   35     180/ 22/ 25 1021.9
SHEBOYGAN LAKESH 2100   36     170/ 23/ 26 1022.4F
PORT WASHINGTON  2040   37     170/ 18/ 25 1023.0F
MILWAUKEE LAKESH 2030   36     150/ 19/ 21   N/A
KENOSHA   LAKESH 2100   38     140/ 17/ 19 1021.7
$$

TC  - TEMPERATURE IN CELSIUS
VSB - VISIBILITY IN STATUTE MILES
WCI - WIND CHILL INDEX
HX  - HEAT INDEX





USA.gov is the U.S. government's official web portal to all federal, state and local government web resources and services.